Location: Kaarina
(60.4167°N, 22.4167°E)
Time: 11:15:00
(UTC+03:00)

Cosmos 2333 Rocket - Pass Details

Date: 24 August 2019
Orbit: 841 x 860 km, 70.8° (Epoch: 21 September)

Event Time Altitude Azimuth Distance (km) Brightness Sun altitude
Rises 22:22:26 0° 305° (NW) 3,409 7.5 -9.3°
Reaches altitude 10° 22:25:07 10° 314° (NW) 2,473 6.3 -9.5°
Maximum altitude 22:30:17 34° 19° (NNE) 1,360 3.6 -10.0°
Drops below altitude 10° 22:35:26 10° 85° (E) 2,475 4.3 -10.4°
Enters shadow 22:37:15 - 92° (E) 3,100 4.7 -10.6°
